View from above orbital plane
|
View from above satellite
|
Ground track
|
The orbit data is extracted from the following two-line orbital elements,
1 14973U 84046A 21023.76394454 .00000035 00000-0 20417-4 0 9992
2 14973 82.9357 274.3345 0032722 15.5921 43.9547 13.75357034841112
Epoch (UTC): | 23 January 2021 18:20:04 |
Eccentricity: | 0.0032722 |
inclination: | 82.9357° |
perigee height: | 956 km |
apogee height: | 1004 km |
right ascension of ascending node: | 274.3345° |
argument of perigee: | 15.5921° |
revolutions per day: | 13.75357034 |
mean anomaly at epoch: | 43.9547° |
orbit number at epoch: | 84111 |
The dashed part of the orbit path shows where the satellite is in the earth's shadow,
|
|